Location: Buena Vista
(37.7110°N, 119.7938°W)
Time: 19:28:16
(UTC+00:00)

SEEDS - Pass Details

Date: 07 October 2024
Orbit: 532 x 540 km, 97.7° (Epoch: 11 November)

Event Time Altitude Azimuth Distance (km) Brightness Sun altitude
Rises 11:25:30 0° 23° (NNE) 2,733 ? -31.1°
Reaches altitude 10° 11:27:50 10° 33° (NNE) 1,831 ? -30.7°
Enters shadow 11:30:42 29° 76° (ENE) 1,014 ? -30.2°
